Location: Mentone
(34.5413°N, 85.5351°W)
Time: 09:03:18
(UTC-05:00)

Cosmos 2026 Rocket - Visible Passes

Search period start: 29 August 2014 00:00
Search period end: 08 September 2014 00:00
Orbit: 939 x 1003 km, 82.9° (Epoch: 24 August)

Date Brightness Start Highest point End Pass type
(mag) Time Alt. Az. Time Alt. Az. Time Alt. Az.
29 Aug 6.3 01:16:01 18° NNE 01:16:01 18° NNE 01:17:23 10° NNE visible
29 Aug 6.3 03:00:35 11° NW 03:00:35 11° NW 03:00:53 10° NNW visible
30 Aug 6.2 01:40:03 18° N 01:40:03 18° N 01:41:31 10° N visible
31 Aug 6.2 02:04:05 16° NNW 02:04:05 16° NNW 02:05:14 10° N visible
01 Sep 6.5 00:43:31 13° NNE 00:43:31 13° NNE 00:44:06 10° NNE visible
01 Sep 6.4 02:28:06 11° NNW 02:28:06 11° NNW 02:28:24 10° NNW visible
02 Sep 6.4 01:07:32 15° N 01:07:32 15° N 01:08:24 10° N visible
03 Sep 6.5 01:31:32 14° N 01:31:32 14° N 01:32:17 10° N visible
04 Sep 6.6 01:55:31 11° NNW 01:55:31 11° NNW 01:55:43 10° NNW visible
05 Sep 6.6 00:34:56 12° NNE 00:34:56 12° NNE 00:35:14 10° NNE visible
06 Sep 6.6 00:58:54 12° N 00:58:54 12° N 00:59:17 10° N visible
07 Sep 6.7 01:22:52 10° NNW 01:22:52 10° NNW 01:22:55 10° NNW visible
